User: anonymous   Login
Location: Theydon Bois
(51.6750°N, 0.1050°E)
Time: 15:47:20
(UTC+01:00)
Language:

Cosmos 1674 - Orbit

View from above orbital plane
View from above orbital plane
View from above satellite
View from above satellite

Ground track
Ground track

The orbit data is extracted from the following two-line orbital elements,

1 15944U 85069A   18202.51735786 +.00000659 +00000-0 +29772-4 0  9997
2 15944 082.5074 193.5236 0017226 177.0823 183.0515 15.19022108798350
Epoch (UTC): 21 July 2018 12:24:59
Eccentricity: 0.0017226
inclination: 82.5074°
perigee height: 497 km
apogee height: 520 km
right ascension of ascending node: 193.5236°
argument of perigee: 177.0823°
revolutions per day: 15.19022108
mean anomaly at epoch: 183.0515°
orbit number at epoch: 79835

The dashed part of the orbit path shows where the satellite is in the earth's shadow,  

DLR